Location: Liscomb Game Sanctuary
(45.1633°N, 62.5575°W)
Time: 19:17:54
(UTC-03:00)

Amateur Radio Satellites - All Passes

Search period start: 20 April 2014 18:47
Search period end: 21 April 2014 18:47
Location: Liscomb Game Sanctuary, 45.1633°N, 62.5575°W

Satellite Date Start Highest point End Downlink Frequencies (MHz)
Time Altitude Azimuth
AO-7 20 Apr 18:47:50 18:52:40 16° 273° (W) 18:57:31 29.400 - 29.500 MHz
Saudisat 1A 20 Apr 18:55:20 18:59:17 30° 43° (NE) 19:03:10 436.775 MHz
UOSAT-12 20 Apr 18:56:41 19:01:05 45° 313° (NW) 19:05:35 437.025 FM, 437.400 FM
SO-67 20 Apr 19:15:09 19:18:29 44° 73° (ENE) 19:21:51 435.3500 MHz FM
ISS 20 Apr 19:17:28 19:20:25 27° 7° (N) 19:23:21 145.800 FM
HO-68 20 Apr 20:02:34 20:08:29 29° 57° (ENE) 20:14:26 435.675 MHz FM
STRAND 1 20 Apr 20:06:36 20:11:44 88° 105° (ESE) 20:16:50 ?
JAS-2 20 Apr 20:31:53 20:36:39 26° 265° (W) 20:41:07 435.800 - 435.900 CW/SSB, 435.910 FM
Saudisat 1A 20 Apr 20:34:52 20:38:58 38° 242° (WSW) 20:43:01 436.775 MHz
UOSAT-12 20 Apr 20:40:38 20:42:27 12° 335° (NNW) 20:44:17 437.025 FM, 437.400 FM
SO-67 20 Apr 20:50:27 20:51:54 12° 270° (W) 20:53:22 435.3500 MHz FM
ISS 20 Apr 20:54:13 20:57:34 66° 26° (NNE) 21:00:54 145.800 FM
MaSat-1 20 Apr 21:42:56 21:45:40 44° 115° (ESE) 21:48:09 437.345 MHz
FUNcube-1 20 Apr 21:47:30 21:50:26 19° 64° (ENE) 21:53:22 145.950 - 145.970 MHz USB
STRAND 1 20 Apr 21:47:36 21:50:12 14° 303° (WNW) 21:52:49 ?
HO-68 20 Apr 21:48:39 21:55:43 64° 257° (WSW) 22:02:50 435.675 MHz FM
SO-50 20 Apr 21:51:08 21:51:47 10° 23° (NNE) 21:52:25 436.795 FM
Oscar 11 20 Apr 21:51:59 21:56:14 63° 73° (ENE) 22:00:31 145.825 FM, Beacon 2401.500 USB
ISS 20 Apr 22:31:27 22:34:02 21° 224° (SW) 22:36:36 145.800 FM
FUNcube-1 20 Apr 23:22:36 23:26:36 43° 261° (W) 23:30:35 145.950 - 145.970 MHz USB
SO-50 20 Apr 23:29:24 23:33:41 36° 45° (NE) 23:38:02 436.795 FM
Oscar 11 20 Apr 23:30:46 23:32:51 13° 271° (W) 23:34:57 145.825 FM, Beacon 2401.500 USB
HO-68 20 Apr 23:43:13 23:44:48 11° 276° (W) 23:46:23 435.675 MHz FM
PCSat 20 Apr 23:57:26 00:01:40 24° 108° (ESE) 00:05:55 145.825 MHz
UOSAT-12 21 Apr 00:05:37 00:07:24 12° 25° (NNE) 00:09:11 437.025 FM, 437.400 FM
Sapphire 21 Apr 00:54:31 00:59:52 65° 117° (ESE) 01:05:15 437.095 MHz 1200 baud AX-25 AFSK
SO-50 21 Apr 01:10:03 01:14:14 34° 243° (WSW) 01:18:28 436.795 FM
Oscar 16 21 Apr 01:22:38 01:24:20 11° 87° (E) 01:26:01 437.025 USB, Beacon 2401.1428
OPAL 21 Apr 01:28:26 01:31:42 18° 56° (NE) 01:35:00 ?
PCSat 21 Apr 01:39:23 01:44:42 56° 307° (NW) 01:50:03 145.825 MHz
UOSAT-12 21 Apr 01:44:16 01:48:47 43° 47° (NE) 01:53:17 437.025 FM, 437.400 FM
KITSAT 1 21 Apr 01:49:47 01:55:43 23° 103° (ESE) 02:01:40 435.175 FM
Uribyol 2 21 Apr 01:59:54 02:02:24 14° 88° (E) 02:04:54 436.500 FM
Oscar 10/S400 21 Apr 02:10:59 02:26:41 21° 127° (SE) 03:00:50 145.825 - 145.975 CW/USB, Beacon 145.810 USB
Sapphire 21 Apr 02:39:18 02:43:45 25° 318° (NW) 02:48:13 437.095 MHz 1200 baud AX-25 AFSK
AO-27 21 Apr 02:39:23 02:43:55 30° 95° (E) 02:48:26 436.795 MHz FM
AO-Echo 21 Apr 02:41:33 02:45:23 24° 93° (E) 02:49:09 ?
Gurwin Techsat 1B 21 Apr 02:43:45 02:44:11 10° 85° (E) 02:44:37 435.225 FM
ITAMSAT 1 21 Apr 02:49:31 02:54:17 36° 97° (E) 02:59:02 435.822 SSB
Oscar 19 21 Apr 02:50:38 02:55:51 69° 102° (ESE) 03:01:02 437.125 CW, 437.150 USB
Oscar 16 21 Apr 02:59:12 03:04:26 87° 104° (ESE) 03:09:39 437.025 USB, Beacon 2401.1428
OPAL 21 Apr 03:04:58 03:10:00 74° 255° (WSW) 03:15:08 ?
UOSAT-12 21 Apr 03:24:46 03:28:47 28° 245° (WSW) 03:32:46 437.025 FM, 437.400 FM
PCSat 21 Apr 03:26:29 03:29:21 14° 329° (NNW) 03:32:14 145.825 MHz
TMSAT-1 21 Apr 03:28:00 03:31:52 20° 91° (E) 03:35:42 436.925 FM
Uribyol 2 21 Apr 03:37:19 03:42:31 82° 286° (WNW) 03:47:42 436.500 FM
KITSAT 1 21 Apr 03:42:01 03:50:10 85° 303° (WNW) 03:58:21 435.175 FM
AO-27 21 Apr 04:18:44 04:23:30 38° 293° (WNW) 04:28:14 436.795 MHz FM
Gurwin Techsat 1B 21 Apr 04:19:41 04:25:01 78° 103° (ESE) 04:30:19 435.225 FM
AO-Echo 21 Apr 04:19:52 04:24:20 40° 291° (WNW) 04:28:43 ?
JAS-1B 21 Apr 04:20:23 04:25:15 29° 95° (E) 04:30:16 435.800 - 435.900 CW/SSB
ITAMSAT 1 21 Apr 04:29:10 04:33:43 32° 295° (WNW) 04:38:14 435.822 SSB
Oscar 19 21 Apr 04:31:11 04:34:39 18° 300° (WNW) 04:38:07 437.125 CW, 437.150 USB
Uosat F 21 Apr 04:39:32 04:44:00 31° 96° (E) 04:48:25 435.120 FM
Oscar 16 21 Apr 04:40:15 04:43:05 15° 303° (WNW) 04:45:54 437.025 USB, Beacon 2401.1428
AO-7 21 Apr 04:49:57 04:57:11 32° 95° (E) 05:04:22 29.400 - 29.500 MHz
TMSAT-1 21 Apr 05:06:59 05:12:10 58° 289° (WNW) 05:17:21 436.925 FM
Uribyol 2 21 Apr 05:18:56 05:21:11 13° 304° (NW) 05:23:26 436.500 FM
KITSAT 1 21 Apr 05:39:57 05:46:46 29° 327° (NNW) 05:53:37 435.175 FM
STRAND 1 21 Apr 05:47:04 05:50:59 23° 62° (ENE) 05:54:54 ?
Gurwin Techsat 1B 21 Apr 06:01:03 06:04:22 17° 302° (WNW) 06:07:39 435.225 FM
RS-15 21 Apr 06:01:08 06:10:39 33° 106° (ESE) 06:19:54 29.354 - 29.394 USB, Beacon 29.352 USB
MaSat-1 21 Apr 06:04:13 06:06:21 18° 55° (NE) 06:08:42 437.345 MHz
JAS-1B 21 Apr 06:10:52 06:16:09 41° 293° (WNW) 06:21:34 435.800 - 435.900 CW/SSB
Uosat F 21 Apr 06:18:18 06:22:47 34° 294° (WNW) 06:27:16 435.120 FM
Hamsat 21 Apr 06:21:41 06:24:17 15° 90° (E) 06:26:52 145.90 MHz
AO-40 21 Apr 06:37:15 11:05:03 28° 157° (SSE) 12:54:29 Beacon 2401.320
AO-7 21 Apr 06:42:16 06:50:27 64° 295° (WNW) 06:58:38 29.400 - 29.500 MHz
PCSat 21 Apr 07:01:49 07:01:54 10° 23° (NNE) 07:01:59 145.825 MHz
STRAND 1 21 Apr 07:24:51 07:29:50 52° 260° (W) 07:34:50 ?
JAS-2 21 Apr 07:36:29 07:41:18 31° 96° (E) 07:46:31 435.800 - 435.900 CW/SSB, 435.910 FM
KITSAT 1 21 Apr 07:40:32 07:45:25 17° 357° (N) 07:50:16 435.175 FM
MaSat-1 21 Apr 07:42:09 07:44:43 25° 247° (WSW) 07:47:39 437.345 MHz
Hamsat 21 Apr 07:56:20 08:00:36 55° 287° (WNW) 08:04:52 145.90 MHz
Sapphire 21 Apr 07:57:58 08:01:40 18° 36° (NE) 08:05:21 437.095 MHz 1200 baud AX-25 AFSK
SO-67 21 Apr 08:10:42 08:14:03 41° 98° (E) 08:17:22 435.3500 MHz FM
RS-15 21 Apr 08:10:45 08:22:03 76° 308° (NW) 08:33:03 29.354 - 29.394 USB, Beacon 29.352 USB
AO-7 21 Apr 08:36:46 08:41:42 18° 317° (NW) 08:46:38 29.400 - 29.500 MHz
PCSat 21 Apr 08:42:10 08:47:05 34° 47° (NE) 08:51:59 145.825 MHz
HO-68 21 Apr 09:14:53 09:20:20 23° 91° (E) 09:25:44 435.675 MHz FM
JAS-2 21 Apr 09:21:32 09:26:29 39° 292° (WNW) 09:31:52 435.800 - 435.900 CW/SSB, 435.910 FM
KITSAT 1 21 Apr 09:37:55 09:44:18 24° 27° (NNE) 09:50:38 435.175 FM
Sapphire 21 Apr 09:40:31 09:45:59 80° 58° (ENE) 09:51:24 437.095 MHz 1200 baud AX-25 AFSK
SO-67 21 Apr 09:44:59 09:46:53 14° 295° (WNW) 09:48:46 435.3500 MHz FM
PCSat 21 Apr 10:25:30 10:30:38 44° 246° (WSW) 10:35:44 145.825 MHz
RS-15 21 Apr 10:26:49 10:36:29 33° 337° (NNW) 10:46:04 29.354 - 29.394 USB, Beacon 29.352 USB
Saudisat 1A 21 Apr 10:43:14 10:47:13 33° 116° (ESE) 10:51:14 436.775 MHz
HO-68 21 Apr 11:01:31 11:08:42 75° 290° (WNW) 11:15:51 435.675 MHz FM
FUNcube-1 21 Apr 11:09:39 11:13:24 29° 96° (E) 11:17:13 145.950 - 145.970 MHz USB
Oscar 11 21 Apr 11:13:39 11:18:02 84° 284° (WNW) 11:22:24 145.825 FM, Beacon 2401.500 USB
Sapphire 21 Apr 11:25:31 11:28:43 16° 256° (WSW) 11:31:54 437.095 MHz 1200 baud AX-25 AFSK
KITSAT 1 21 Apr 11:33:13 11:41:20 68° 52° (NE) 11:49:21 435.175 FM
Saudisat 1A 21 Apr 12:22:42 12:26:48 35° 315° (NW) 12:30:55 436.775 MHz
Oscar 19 21 Apr 12:32:35 12:36:00 18° 59° (ENE) 12:39:26 437.125 CW, 437.150 USB
ITAMSAT 1 21 Apr 12:34:59 12:36:06 11° 54° (NE) 12:37:13 435.822 SSB
Oscar 16 21 Apr 12:40:36 12:44:31 23° 62° (ENE) 12:48:28 437.025 USB, Beacon 2401.1428
RS-15 21 Apr 12:44:02 12:53:10 29° 13° (NNE) 13:02:18 29.354 - 29.394 USB, Beacon 29.352 USB
FUNcube-1 21 Apr 12:46:09 12:49:47 28° 292° (WNW) 12:53:29 145.950 - 145.970 MHz USB
HO-68 21 Apr 12:50:52 12:55:16 18° 310° (NW) 12:59:40 435.675 MHz FM
Oscar 11 21 Apr 12:53:00 12:53:29 10° 302° (WNW) 12:53:59 145.825 FM, Beacon 2401.500 USB
Uribyol 2 21 Apr 13:19:09 13:23:24 27° 63° (ENE) 13:27:39 436.500 FM
KITSAT 1 21 Apr 13:29:20 13:36:09 31° 253° (WSW) 13:42:56 435.175 FM
AO-Echo 21 Apr 13:55:54 14:00:46 41° 69° (ENE) 14:05:31 ?
AO-27 21 Apr 13:59:26 14:04:29 56° 71° (ENE) 14:09:34 436.795 MHz FM
AO-7 21 Apr 14:04:04 14:07:57 14° 40° (NE) 14:11:50 29.400 - 29.500 MHz
Gurwin Techsat 1B 21 Apr 14:04:44 14:08:45 22° 61° (ENE) 14:12:45 435.225 FM
ITAMSAT 1 21 Apr 14:09:30 14:14:38 68° 72° (ENE) 14:19:47 435.822 SSB
Oscar 19 21 Apr 14:09:41 14:14:48 69° 258° (WSW) 14:19:59 437.125 CW, 437.150 USB
Oscar 16 21 Apr 14:18:30 14:23:31 54° 260° (W) 14:28:36 437.025 USB, Beacon 2401.1428
TMSAT-1 21 Apr 14:50:31 14:55:22 38° 67° (ENE) 15:00:14 436.925 FM
RS-15 21 Apr 14:57:42 15:08:29 58° 44° (NE) 15:19:25 29.354 - 29.394 USB, Beacon 29.352 USB
Uribyol 2 21 Apr 14:57:44 15:02:39 44° 261° (W) 15:07:36 436.500 FM
JAS-1B 21 Apr 15:07:04 15:13:56 38° 65° (ENE) 15:19:50 435.800 - 435.900 CW/SSB
OPAL 21 Apr 15:13:18 15:17:35 25° 96° (E) 15:21:50 ?
ISS 21 Apr 15:14:27 15:17:38 43° 143° (SE) 15:20:50 145.800 FM
SO-50 21 Apr 15:26:38 15:30:56 48° 119° (ESE) 15:35:17 436.795 FM
AO-Echo 21 Apr 15:35:14 15:39:38 27° 265° (W) 15:43:59 ?
AO-27 21 Apr 15:40:35 15:44:22 20° 268° (W) 15:48:09 436.795 MHz FM
Gurwin Techsat 1B 21 Apr 15:43:06 15:48:19 57° 259° (W) 15:53:34 435.225 FM
AO-7 21 Apr 15:50:58 15:58:53 52° 62° (ENE) 16:06:48 29.400 - 29.500 MHz
ITAMSAT 1 21 Apr 15:51:22 15:54:37 17° 270° (W) 15:57:53 435.822 SSB
Oscar 10/S400 21 Apr 15:53:43 16:19:07 11° 275° (W) 16:49:12 145.825 - 145.975 CW/USB, Beacon 145.810 USB
Uosat F 21 Apr 15:54:40 15:59:34 55° 71° (ENE) 16:04:28 435.120 FM
TMSAT-1 21 Apr 16:30:43 16:35:21 31° 265° (W) 16:40:01 436.925 FM
ISS 21 Apr 16:51:13 16:54:24 40° 341° (NNW) 16:57:36 145.800 FM
OPAL 21 Apr 16:51:40 16:56:40 47° 293° (WNW) 17:01:38 ?
JAS-1B 21 Apr 16:56:58 17:04:30 46° 260° (W) 17:10:53 435.800 - 435.900 CW/SSB
SO-50 21 Apr 17:07:54 17:11:43 27° 319° (NW) 17:15:35 436.795 FM
RS-15 21 Apr 17:10:25 17:20:42 49° 248° (WSW) 17:31:15 29.354 - 29.394 USB, Beacon 29.352 USB
Hamsat 21 Apr 17:17:54 17:20:18 15° 62° (ENE) 17:22:42 145.90 MHz
Saudisat 1A 21 Apr 17:29:46 17:31:29 12° 27° (NNE) 17:33:11 436.775 MHz
Uosat F 21 Apr 17:35:04 17:38:41 20° 268° (W) 17:42:19 435.120 FM
UOSAT-12 21 Apr 17:37:07 17:41:34 55° 120° (ESE) 17:46:07 437.025 FM, 437.400 FM
AO-7 21 Apr 17:44:14 17:51:51 40° 262° (W) 17:59:32 29.400 - 29.500 MHz
JAS-2 21 Apr 17:53:21 17:56:45 17° 59° (ENE) 18:00:02 435.800 - 435.900 CW/SSB, 435.910 FM
ISS 21 Apr 18:28:49 18:31:42 26° 1° (N) 18:34:36 145.800 FM
